This is the latest recevied weather packets stored in our database for station/object DG9MHV-10. If no packets are shown the sender has not sent any weather packets the latest 10 day(s).
| Time | Temp. | Humidity | Pressure | Rain* | Wind** | Luminosity | Snow |
|---|---|---|---|---|---|---|---|
| 1788512935 | 32.22° C | 100% | 1020.7 hPa | - | - | - | - |
| 1788512035 | 32.22° C | 100% | 1020.7 hPa | - | - | - | - |
| 1788511135 | 32.78° C | 100% | 1020.9 hPa | - | - | - | - |
| 1788510235 | 32.78° C | 100% | 1021 hPa | - | - | - | - |
| 1788509335 | 32.22° C | 100% | 1021 hPa | - | - | - | - |
| 1788508435 | 32.22° C | 100% | 1021.1 hPa | - | - | - | - |
| 1788507535 | 31.67° C | 100% | 1021.2 hPa | - | - | - | - |
| 1788506635 | 31.67° C | 100% | 1021.4 hPa | - | - | - | - |
| 1788505734 | 31.67° C | 100% | 1021.4 hPa | - | - | - | - |
| 1788504834 | 31.11° C | 100% | 1021.5 hPa | - | - | - | - |
| 1788503934 | 28.33° C | 100% | 1021.1 hPa | - | - | - | - |
| 1788503034 | 27.22° C | 100% | 1020.5 hPa | - | - | - | - |
| 1788502134 | 25.56° C | 100% | 1018.9 hPa | - | - | - | - |
| 1788501234 | 22.78° C | 100% | 1018.6 hPa | - | - | - | - |
| 1788500334 | 19.44° C | 100% | 1018.7 hPa | - | - | - | - |
| 1788499434 | 18.33° C | 100% | 1018.9 hPa | - | - | - | - |
| 1788498534 | 16.67° C | 100% | 1018.9 hPa | - | - | - | - |
| 1788497634 | 16.67° C | 100% | 1018.9 hPa | - | - | - | - |
| 1788496734 | 16.67° C | 100% | 1018.8 hPa | - | - | - | - |
| 1788495834 | 17.22° C | 100% | 1018.9 hPa | - | - | - | - |
| 1788494934 | 17.22° C | 100% | 1019.2 hPa | - | - | - | - |
| 1788494033 | 17.22° C | 100% | 1019.3 hPa | - | - | - | - |
| 1788493133 | 16.67° C | 100% | 1019.4 hPa | - | - | - | - |
| 1788492233 | 16.67° C | 100% | 1019.5 hPa | - | - | - | - |
| 1788491333 | 16.11° C | 100% | 1019.5 hPa | - | - | - | - |
* Rain since midnight (hover to see other rain measurements)
** Current wind speed in m/s (hover to see current wind gust speed)